Home   Weather   Glendale   Past weeks

Flag for USA Past Weather in Glendale, California, USA — Yesterday and Last 2 Weeks

Now
61 °F

Sunny.


Feels Like: 61 °F
Forecast: 48 / 65 °F
Wind: 6 mph from South

Location: Bob Hope Airport

Current Time: Jan 16, 2017 at 2:07:45 pm

Latest Report: Jan 16, 2017 at 12:53 pm


Visibility: 10 mi

Pressure: 29.99 "Hg

Humidity: 56%

Dew Point: 45 °F

Location of GlendaleLocation

Past Weather in Glendale — Graph

°F

Glendale Temperature Yesterday

Maximum temperature yesterday: 61 °F (at 2:53 pm)
Minimum temperature yesterday: 45 °F (at 5:53 am)
Average temperature yesterday: 53 °F

High & Low Weather Summary for the Past Weeks

 TemperatureHumidityPressure
High74 °F (Jan 8, 12:53 pm)97% (Jan 4, 11:00 pm)30.20 "Hg (Jan 4, 11:00 pm)
Low45 °F (Jan 3, 2:53 am)26% (Jan 8, 4:53 pm)29.88 "Hg (Jan 12, 1:53 pm)
Average54 °F77%30.04 "Hg
* Reported Jan 1 12:53 pm — Jan 16 12:53 pm, Glendale, Weather by CustomWeather, © 2017

Note: Actual official high and low records may vary slightly from our data, if they occured in-between our weather recording intervals... More about our weather records

Advertising

Glendale Weather History for the Previous 24 Hours

Scroll right to see more
 ConditionsComfort  
Time TempWeatherWind HumidityBarometerVisibility
12:53 pm
Mon, Jan 16
61 °FSunny.6 mph56%29.99 "Hg10 mi
11:53 am59 °FSunny.No wind60%30.03 "Hg10 mi
10:53 am56 °FSunny.No wind70%30.07 "Hg10 mi
9:53 am54 °FSunny.No wind74%30.08 "Hg10 mi
8:53 am51 °FSunny.No wind80%30.08 "Hg10 mi
7:53 am48 °FSunny.3 mph83%30.06 "Hg10 mi
6:53 am48 °FClear.3 mph83%30.04 "Hg10 mi
6:03 am48 °FPassing clouds.No wind83%30.04 "Hg10 mi
4:53 am48 °FOvercast.3 mph86%30.01 "Hg10 mi
3:53 am49 °FPassing clouds.No wind90%30.01 "Hg10 mi
2:53 am50 °FPassing clouds.No wind86%30.02 "Hg10 mi
1:53 am50 °FPassing clouds.5 mph89%30.03 "Hg10 mi
12:53 am53 °FPassing clouds.No wind83%30.03 "Hg10 mi
11:53 pm
Sun, Jan 15
54 °FPassing clouds.No wind80%30.04 "Hg10 mi
10:53 pm55 °FOvercast.No wind77%30.04 "Hg10 mi
9:53 pm55 °FOvercast.6 mph80%30.05 "Hg10 mi
8:53 pm55 °FPassing clouds.5 mph80%30.04 "Hg10 mi
7:53 pm56 °FOvercast.5 mph75%30.04 "Hg10 mi
7:13 pm56 °FMostly cloudy.No wind75%30.05 "Hg10 mi
6:53 pm56 °FPassing clouds.3 mph77%30.03 "Hg10 mi
5:53 pm57 °FPassing clouds.6 mph74%30.02 "Hg10 mi
4:53 pm58 °FScattered clouds.8 mph72%30.00 "Hg10 mi
3:53 pm61 °FPassing clouds.10 mph60%29.99 "Hg10 mi
2:53 pm61 °FPassing clouds.10 mph56%29.99 "Hg10 mi
Weather by CustomWeather, © 2017

See weather overviewHow to use our weather pages